FALCON 9 DEB (45592 NORAD) Tracking and Keplerian Element Data

This shows tracking and keplerian element data for the satellite.

Feedback or suggestion? Click here.




ElementValue
Catalog45592
NameFALCON 9 DEB
Epoch Orbit462
Epoch Day142.50183573
Epoch Year2020
RAAN250.3799
Inclination52.9914
Eccentricity0.0006337
Argument of Perigee172.469
Mean Anonmoly187.6453
Mean Motion16.42552025
Decay Rate0.06280811
L11 45592U 20025BP 20142.50183573 .06280811 12343-4 31622-3 0 9995
L22 45592 52.9914 250.3799 0006337 172.4690 187.6453 16.42552025 4628

Live tracking and technical data element details for FALCON 9 DEB (NORAD 45592). FALCON 9 DEB can be tracked NOW for your location showing map with azimuth and elevation plus other details from your city location.

Track the satellite on the map from your city or location and see movement details for azimuth, elevation, latitude, longitude, range, height, and movement on the map or in text.







IsCatalogInMostPopularTable: catalog: 45592, numindb: 19
Update: records affected: 1



GetName: 45592 FALCON 9 DEB

Hit Count: updated at: Fri, 10 Jul 2020 04:23:42 GMT